Regional Weather Roundup
Issued by NWS

Home | Current Version | Previous Version | Text Only | Print | Product List | Glossary On
Versions: 1 2 3 4 5 6 7 8 9 10 11 12 13 14 15 16 17 18 19 20 21 22 23 24 25 26 27 28 29 30 31 32 33 34 35 36 37 38 39 40 41 42 43 44 45 46 47 48 49 50
000
ASUS44 KLUB 260001
RWRTX
WEST TEXAS WEATHER ROUNDUP
NATIONAL WEATHER SERVICE LUBBOCK TX
700 PM CDT SUN JUN 25 2017

NOTE: "FAIR" INDICATES FEW OR NO CLOUDS BELOW 12,000 FEET WITH NO
SIGNIFICANT WEATHER AND/OR OBSTRUCTIONS TO VISIBILITY.

TXZ004-006>008-010-012-014-016-OKZ002-260100-
TEXAS PANHANDLE/OKLAHOMA PANHANDLE

CITY           SKY/WX    TMP DP  RH WIND       PRES   REMARKS
AMARILLO       SUNNY     79  61  53 SE17G23   30.19S
BORGER         PTSUNNY   80  61  52 SE12      30.18S
CANADIAN       CLOUDY    77  64  63 SE9       30.19S
DALHART        LGT RAIN  80  65  59 S10       30.15F
DUMAS          CLOUDY    79  59  50 SE17      30.17F
GUYMON         CLOUDY    73  64  73 SE23G31   30.12F
PERRYTON       PTSUNNY   75  64  68 SE16      30.19F
$$

TXZ026-029-035-045-048-260100-
SOUTHERN PANHANDLE/SOUTH PLAINS/ROLLING PLAINS

CITY           SKY/WX    TMP DP  RH WIND       PRES   REMARKS
CHILDRESS      SUNNY     82  61  48 SE9       30.15F
SEMINOLE       MOSUNNY   88  56  34 SE15      30.14F
LUBBOCK        MOSUNNY   86  60  41 SE16      30.14F
PLAINVIEW      SUNNY     80  61  53 SE16G24   30.15S
SNYDER         CLOUDY    84  63  48 E15       30.15F
$$

TXZ052-054-060>062-072-078-127-140-154-169-260100-
PERMIAN BASIN/CONCHO VALLEY/BIG COUNTRY/EDWARDS PLATEAU

CITY           SKY/WX    TMP DP  RH WIND       PRES   REMARKS
ABILENE        MOSUNNY   82  63  52 E10       30.13F
BIG SPRING     MOSUNNY   84  61  46 E14       30.16S
BROWNWOOD      MOSUNNY   82  68  61 E10       30.12S
JUNCTION       MOSUNNY   89  63  41 E13       30.08F
MIDLAND        MOSUNNY   90  58  33 SE21      30.12S
ODESSA         CLOUDY    90  57  32 SE10      30.12F
SAN ANGELO     SUNNY     87  62  43 E14       30.10F
SONORA         SUNNY     88  59  37 E8        30.14S
SWEETWATER     MOSUNNY   82  63  51 E9        30.18S
WINK           MOSUNNY   94  54  25 MISG      30.05F
$$

TXZ055-058-074-075-080-082-260100-
FAR WEST/SOUTHWEST MOUNTAINS/TRANS PECOS

CITY           SKY/WX    TMP DP  RH WIND       PRES   REMARKS
ALPINE         MOSUNNY   84  52  32 SE12      30.25S
DRYDEN           N/A     91  60  35 SE13G20   30.06F
EL PASO        MOSUNNY   87  58  37 E26G35    30.09R
FORT STOCKTON  PTSUNNY   90  57  32 SE12      30.09F
MARFA          CLOUDY    83  54  36 MISG      30.22F
PRESIDIO       FAIR      95  56  26 NE12      30.05F
$$

TXZ014-016-019-021>030-083-260100
TEXAS TECH WEST TEXAS MESONET/TEXAS PANHANDLE/NORTHERN SOUTH PLAINS

CITY           SKY/WX    TMP DP  RH WIND       PRES   REMARKS
ABERNATHY 5ENE   N/A     81  61  49 E21       30.16F
AMARILLO 9NNE    N/A     80  61  51 SE17      30.16R
AMARILLO 7SSE    N/A     78  61  56 SE15      30.19S
AMHERST 1NE      N/A     86  55  34 SE15      30.15S
BOOTLEG 11WNW    N/A     81  59  47 S16       30.20F
CAPROCK CYN SP   N/A     79  64  59 E12       30.16F
CHILDRESS 2NNE   N/A     82  61  49 E12       30.15F
CLARENDON 2WSW   N/A     79  63  57 SE13      30.18R
CLAUDE 12SW      N/A     77  63  61 E16       30.19R
DIMMITT 2NE      N/A     80  62  54 E17       30.17S
FLOYDADA 2NNE    N/A     80  60  51 E17       30.16F
FRIONA 2NE       N/A     83  58  42 S13       30.18S
GOODLETT 3W      N/A     83  60  46 E12       30.13F
HART 3N          N/A     79  64  59 E20       30.17S
HEREFORD 2NW     N/A     80  58  46 E10       30.16F
MCLEAN 1E        N/A     76  61  60 E13       30.19S
MEMPHIS 1NE      N/A     82  62  50 E12       30.15S
MULESHOE 2SSW    N/A     85  58  40 S12       30.15F
OLTON 6S         N/A     84  57  39 SE10      30.15S
PALO DURO SP     N/A     77  63  61 SE12      30.19S
PAMPA 2E         N/A     75  62  64 E14       30.20S
PLAINVIEW 1S     N/A     80  62  53 E17       30.15F
SILVERTON 7ESE   N/A     78  61  56 E16       30.18F
TULIA 2ENE       N/A     78  64  62 E18       30.17S
TURKEY 2WSW      N/A     81  64  57 E16       30.15S
UMBARGER 3NNE    N/A     77  62  59 SE17      30.18F
$$

TXZ033>036-039>041-045>048-260100
TEXAS TECH WEST TEXAS MESONET/SOUTH PLAINS

CITY           SKY/WX    TMP DP  RH WIND       PRES   REMARKS
AIKEN 3WSW       N/A     79  64  59 SE18      30.17F
ANDREWS 2NE      N/A     88  55  32 SE12      30.14S
ANTON 6SSW       N/A     85  60  42 SE17      30.14F
BROWNFIELD 2S    N/A     87  59  38 SE15      30.14F
DENVR CTY 7WNW   N/A     86  53  32 SE15      30.14F
GAIL 2ESE        N/A     85  60  42 E10       30.13S
LAMESA 2SE       N/A     86  61  42 E13       30.14S
LEVELLAND 4S     N/A     85  56  35 SE13      30.15F
LUBBOCK 3WNW     N/A     85  58  40 SE13      30.15S
MORTON 1ENE      N/A     86  57  37 SE14      30.15F
ODONNELL 1N      N/A     85  56  37 E14       30.14F
PLAINS 3N        N/A     85  55  34 SE15      30.15F
RALLS 1SE        N/A     82  60  46 SE21      30.16F
REESE CENTER     N/A     84  58  41 E20       30.14F
SEAGRAVES 1SW    N/A     88  57  35 SE13      30.14F
SEMINOLE 2NNE    N/A     88  55  32 SE15      30.14F
SLATON 2NE       N/A     85  58  40 SE15      30.14F
SNYDER 3E        N/A     84  62  48 E13       30.14F
SUNDOWN 8SW      N/A     85  56  37 SE14      30.15S
TAHOKA 3NNE      N/A     86  59  40 SE14      30.14F
WOLFFORTH 6SSW   N/A     87  58  37 SE14      30.14F
$$

TXZ031-032-036>038-042>044-260100-
TEXAS TECH WEST TEXAS MESONET/ROLLING PLAINS

CITY           SKY/WX    TMP DP  RH WIND       PRES   REMARKS
ASPERMONT 3NE    N/A     85  62  45 E8        30.13F
FLUVANNA 3WNW    N/A     83  59  43 E14       30.14F
GRAHAM 5SSW      N/A     83  60  44 SE13      30.14F
GUTHRIE 10WSW    N/A     84  61  45 E9        30.13F
HASKELL 1NW      N/A     81  63  53 E5        30.13F
JAYTON 1SSE      N/A     84  62  47 E15       30.13F
KNOX CITY 3NW    N/A     83  61  46 E8        30.14S
LK A HENRY 1NW   N/A     86  60  42 E12       30.13S
NORTHFIELD 1S    N/A     82  63  53 E13       30.13F
PADUCAH 10SW     N/A     83  63  51 SE12      30.14F
POST 1NE         N/A     85  59  40 SE12      30.13F
RRING SPRGS 3N   N/A     81  64  55 E15       30.16F
SEYMOUR 3NW      N/A     84  62  46 E7        30.13F
SPUR 1W          N/A     83  60  46 SE12      30.13F
WEINERT 2NNE     N/A     82  65  55 E7        30.13F
WHITE RVR 6NE    N/A     84  60  43 SE15      30.14F
$$

TXZ052-054-060>062-072-078-127-140-154-169-260100-
TEXAS TECH WEST TEXAS MESONET/PERMIAN BASIN/
CONCHO VALLEY/BIG COUNTRY/EDWARDS PLATEAU

CITY           SKY/WX    TMP DP  RH WIND       PRES   REMARKS
COYANOSA 2N      N/A     95  56  27 SE10      30.06F
JUNCTION 1SSW    N/A     89  63  41 E9        30.09F
MERTZON 3NNE     N/A     86  63  46 E8        30.13F
STRLNG CT 4WSW   N/A     86  61  43 E13       30.14S
ST LAWRNCE 5SW   N/A     87  59  39 E14       30.13S
SWEETWATR 11SW   N/A     82  64  55 E9        30.17S
WALL 1E          N/A     87  64  46 E12       30.12S
$$

TXZ055-058-074-075-080-082-260100-
TEXAS TECH WEST TEXAS MESONET/FAR WEST/SOUTHWEST MOUNTAINS/TRANS PECOS

CITY           SKY/WX    TMP DP  RH WIND       PRES   REMARKS
PRSMN GAP BBNP   N/A     91  56  30 NE9       30.08S
GUADLPE MTN NP   N/A     79  51  37 E8        30.27S
$$




USA.gov is the U.S. government's official web portal to all federal, state and local government web resources and services.